This demonstration page uses our WeatherBlox Daily Observations layout. Learn more.

Left ArrowRight Arrow

Hourly Observations for January 7, 2019

Temp ( °F °C ) Dew Point ( °F °C ) Humidity (%) Winds ( mph kmh ) Pressure ( in mb ) Visibility ( mi km ) Precip ( " mm )
12:53 am 00:53 Clear 42 5.6 41 5 96 96 Calm 30.21 1023 10 16 0.00 0.00
1:53 am 01:53 Clear 40 4.4 40 4.4 100 100 Calm 30.22 1023 10 16 0.00 0.00
2:53 am 02:53 Clear 40 4.4 40 4.4 100 100 Calm 30.22 1023 10 16 0.00 0.00
3:53 am 03:53 Clear 40 4.4 40 4.4 100 100 Calm 30.20 1023 10 16 0.00 0.00
4:53 am 04:53 Clear 40 4.4 39 3.9 97 97 Calm 30.20 1023 10 16 0.00 0.00
5:53 am 05:53 Clear 39 3.9 39 3.9 100 100 Calm 30.22 1023 10 16 0.00 0.00
6:53 am 06:53 Clear 40 4.4 39 3.9 97 97 Calm 30.22 1024 10 16 0.00 0.00
7:53 am 07:53 Sunny 39 3.9 38 3.3 96 96 Calm 30.25 1025 9 14 0.00 0.00
8:53 am 08:53 Sunny 43 6.1 42 5.6 97 97 NE 3 6 30.27 1025 10 16 0.00 0.00
9:53 am 09:53 Sunny 51 10.6 45 7.2 80 80 Calm 30.29 1026 10 16 0.00 0.00
10:53 am 10:53 Sunny 57 13.9 47 8.3 69 69 Calm 30.27 1025 10 16 0.00 0.00
11:53 am 11:53 Sunny 64 17.8 44 6.7 48 48 SSE 7 11 30.24 1024 10 16 0.00 0.00
12:53 pm 12:53 Sunny 66 18.9 44 6.7 45 45 S 9 15 30.20 1023 10 16 0.00 0.00
1:53 pm 13:53 Sunny 68 20 42 5.6 39 39 S 10 17 30.16 1022 10 16 0.00 0.00
2:53 pm 14:53 Sunny 69 20.6 43 6.1 39 39 SSW 8 13 30.15 1021 10 16 0.00 0.00
3:53 pm 15:53 Sunny 68 20 41 5 38 38 SSW 8 13 30.15 1021 10 16 0.00 0.00
4:53 pm 16:53 Sunny 67 19.4 40 4.4 37 37 S 8 13 30.16 1021 10 16 0.00 0.00
5:53 pm 17:53 Clear 63 17.2 42 5.6 47 47 SSE 7 11 30.16 1021 10 16 0.00 0.00
6:53 pm 18:53 Clear 61 16.1 43 6.1 52 52 SE 5 7 30.16 1021 10 16 0.00 0.00
7:53 pm 19:53 Clear 56 13.3 44 6.7 65 65 Calm 30.18 1022 10 16 0.00 0.00
8:53 pm 20:53 Clear 50 10 45 7.2 83 83 Calm 30.17 1022 10 16 0.00 0.00
9:53 pm 21:53 Clear 48 8.9 46 7.8 93 93 Calm 30.15 1021 10 16 0.00 0.00
10:53 pm 22:53 Clear 54 12.2 46 7.8 75 75 Calm 30.14 1021 10 16 0.00 0.00
11:53 pm 23:53 Mostly Clear 53 11.7 46 7.8 77 77 Calm 30.15 1021 10 16 0.00 0.00

Powered by AerisWeather